DW6558 Weather Reports


time (UTC)temp
F
wind
direction
speed
knots
gust
knots
rain 1hr
in
rain 24hr
in
rain mn
in
humidity
%
barometer
mb
20260903075937 50 81 0.0 0.0 0.00 0.00 0.00 62 930.3
20260903075432 50 103 0.0 0.0 0.00 0.00 0.00 63 930.3
20260903074927 50 77 0.0 0.0 0.00 0.00 0.00 62 930.3
20260903074426 50 68 0.0 0.0 0.00 0.00 0.00 62 930.4
20260903073921 50 83 0.0 0.9 0.00 0.00 0.00 62 930.2
20260903073416 50 58 0.0 0.0 0.00 0.00 0.00 62 930.2
20260903072912 50 109 0.0 0.0 0.00 0.00 0.00 61 930.2
20260903072408 51 67 0.0 0.0 0.00 0.00 0.00 61 930.3
20260903071905 51 73 0.0 0.0 0.00 0.00 0.00 58 930.3
20260903071401 51 91 0.0 2.6 0.00 0.00 0.00 59 930.1
20260903070856 50 116 0.0 1.7 0.00 0.00 0.00 59 930.2
20260903070350 50 81 0.0 0.0 0.00 0.00 0.00 61 930.3
20260903065845 50 65 0.0 0.0 0.00 0.00 0.00 59 930.3
20260903065344 50 57 0.0 0.0 0.00 0.00 0.00 60 930.2
20260903064838 51 67 0.0 0.0 0.00 0.00 0.00 60 930.4
20260903064334 50 61 0.0 0.0 0.00 0.00 0.00 61 930.3
20260903063829 51 67 0.0 0.0 0.00 0.00 0.00 59 930.4
20260903063324 51 55 0.0 0.0 0.00 0.00 0.00 59 930.2
20260903062820 50 61 0.0 0.0 0.00 0.00 0.00 60 930.2
20260903062320 51 69 0.0 0.0 0.00 0.00 0.00 60 930.1
20260903061817 50 55 0.0 0.0 0.00 0.00 0.00 60 930.2
20260903061315 50 64 0.0 0.0 0.00 0.00 0.00 59 930.1
20260903060812 51 118 0.0 0.0 0.00 0.00 0.00 57 930.0
20260903060311 50 53 0.0 0.0 0.00 0.00 0.00 57 930.0
20260903055808 50 199 0.0 0.0 0.00 0.00 0.00 61 930.2
20260903055306 51 43 0.0 0.9 0.00 0.00 0.00 59 929.9
20260903054756 51 54 0.0 0.0 0.00 0.00 0.00 60 929.7
20260903054251 52 35 0.0 0.0 0.00 0.00 0.00 55 930.0
20260903053748 52 67 0.0 0.0 0.00 0.00 0.00 54 929.9
20260903053248 53 66 0.0 0.0 0.00 0.00 0.00 55 930.0
20260903052743 53 60 0.0 0.0 0.00 0.00 0.00 54 929.9
20260903052239 53 82 0.0 0.0 0.00 0.00 0.00 54 930.0
20260903051734 53 71 0.0 0.0 0.00 0.00 0.00 52 930.0
20260903051230 53 64 0.0 0.0 0.00 0.00 0.00 52 930.1
20260903050725 53 85 0.0 0.0 0.00 0.00 0.00 53 930.1
20260903050224 53 87 0.0 0.0 0.00 0.00 0.00 54 930.0
20260903045719 53 81 0.0 0.0 0.00 0.00 0.00 53 930.2
20260903045215 53 51 0.0 0.0 0.00 0.00 0.00 52 930.1
20260903044711 53 82 0.0 1.7 0.00 0.00 0.00 53 930.2
20260903044206 54 54 0.0 0.0 0.00 0.00 0.00 49 930.1
20260903043703 55 58 0.0 0.0 0.00 0.00 0.00 49 930.3
20260903043202 55 80 0.9 2.6 0.00 0.00 0.00 48 930.1
20260903042701 55 79 2.6 7.0 0.00 0.00 0.00 48 930.2
20260903042156 55 60 0.0 0.0 0.00 0.00 0.00 49 930.5
20260903041653 54 74 0.9 2.6 0.00 0.00 0.00 52 930.4
20260903041148 56 71 0.0 0.0 0.00 0.00 0.00 49 930.3
20260903040648 56 58 0.0 0.0 0.00 0.00 0.00 50 930.2
20260903040144 56 107 0.0 0.0 0.00 0.00 0.00 52 930.2
20260903035640 56 98 0.0 0.0 0.00 0.00 0.00 53 930.1
20260903035135 56 49 0.0 0.0 0.00 0.00 0.00 51 929.7
20260903034630 57 42 0.0 0.0 0.00 0.00 0.00 49 929.5
20260903034125 59 61 0.0 0.0 0.00 0.00 0.00 46 929.5
20260903033620 57 73 0.0 0.0 0.00 0.00 0.00 48 929.4
20260903033115 57 100 0.0 0.0 0.00 0.00 0.00 47 929.9
20260903032610 58 33 0.0 1.7 0.00 0.00 0.00 46 929.9
20260903032105 58 44 0.0 0.0 0.00 0.00 0.00 44 930.0
20260903031600 58 51 0.0 0.0 0.00 0.00 0.00 46 930.0
20260903031055 58 22 0.0 0.0 0.00 0.00 0.00 48 930.0
20260903030550 61 41 0.0 0.0 0.00 0.00 0.00 45 929.9
20260903030047 61 65 0.0 0.0 0.00 0.00 0.00 38 929.7
20260903025541 60 54 0.0 0.0 0.00 0.00 0.00 40 929.7
20260903025037 60 11 0.0 0.0 0.00 0.00 0.00 42 929.9
20260903024536 60 21 0.0 0.0 0.00 0.00 0.00 45 929.7
20260903024031 61 21 0.0 0.0 0.00 0.00 0.00 45 930.1
20260903023527 62 359 0.0 0.0 0.00 0.00 0.00 43 930.0
20260903023022 62 36 0.0 0.0 0.00 0.00 0.00 39 930.0
20260903022521 62 35 0.0 0.0 0.00 0.00 0.00 42 930.1
20260903022020 63 35 0.0 0.0 0.00 0.00 0.00 41 930.0
20260903021515 65 35 0.0 0.0 0.00 0.00 0.00 35 930.1
20260903021010 65 35 0.0 0.0 0.00 0.00 0.00 34 930.2
20260903020506 67 36 0.0 0.0 0.00 0.00 0.00 31 930.1
20260903020000 67 16 0.0 0.0 0.00 0.00 0.00 30 929.9
20260903015456 68 10 0.0 0.0 0.00 0.00 0.00 29 929.6
20260903014955 68 298 0.0 0.0 0.00 0.00 0.00 29 929.5
20260903014449 69 291 0.0 0.0 0.00 0.00 0.00 27 929.4
20260903013944 70 257 0.0 0.0 0.00 0.00 0.00 27 929.6
20260903013444 70 272 0.9 7.0 0.00 0.00 0.00 26 929.7
20260903012943 70 315 3.5 7.8 0.00 0.00 0.00 27 929.6
20260903012438 70 278 1.7 5.2 0.00 0.00 0.00 25 930.0
20260903011937 71 201 5.2 9.6 0.00 0.00 0.00 25 929.9
20260903011432 71 330 2.6 5.2 0.00 0.00 0.00 26 930.1
20260903010932 71 255 6.1 9.6 0.00 0.00 0.00 24 930.0
20260903010427 72 279 5.2 7.8 0.00 0.00 0.00 24 930.0
20260903005925 73 241 6.1 11.3 0.00 0.00 0.00 24 930.0
20260903005415 73 262 7.8 12.2 0.00 0.00 0.00 24 930.0
20260903004912 74 190 5.2 12.2 0.00 0.00 0.00 24 930.0
20260903004406 74 260 5.2 8.7 0.00 0.00 0.00 25 930.3
20260903003902 74 258 8.7 11.3 0.00 0.00 0.00 24 930.4
20260903003402 74 273 2.6 9.6 0.00 0.00 0.00 25 930.3
20260903002856 75 221 6.1 12.2 0.00 0.00 0.00 25 930.3
20260903002351 75 261 0.0 5.2 0.00 0.00 0.00 25 930.4
20260903001845 75 165 9.6 13.9 0.00 0.00 0.00 22 930.4
20260903001341 75 308 0.9 8.7 0.00 0.00 0.00 25 930.2
20260903000840 76 342 7.0 14.8 0.00 0.00 0.00 24 930.4
20260903000336 76 223 4.3 13.9 0.00 0.00 0.00 23 930.3
20260902235834 75 252 6.1 9.6 0.00 0.00 0.00 23 930.3
20260902235329 75 194 5.2 7.8 0.00 0.00 0.00 24 930.5
20260902234829 76 252 9.6 13.9 0.00 0.00 0.00 23 930.7
20260902234328 76 227 7.0 13.0 0.00 0.00 0.00 23 930.5
20260902233827 77 285 6.1 8.7 0.00 0.00 0.00 23 930.4
20260902233328 76 215 5.2 12.2 0.00 0.00 0.00 23 930.4
20260902232826 76 237 10.4 17.4 0.00 0.00 0.00 22 930.4
20260902232321 76 254 7.0 14.8 0.00 0.00 0.00 23 930.7
20260902231820 77 320 5.2 13.0 0.00 0.00 0.00 24 930.3
20260902231316 77 243 1.7 14.8 0.00 0.00 0.00 23 930.7
20260902230811 76 233 4.3 14.8 0.00 0.00 0.00 23 930.4
20260902230309 76 246 4.3 12.2 0.00 0.00 0.00 23 930.4
20260902225804 76 218 7.0 11.3 0.00 0.00 0.00 23 930.5
20260902225259 77 227 9.6 17.4 0.00 0.00 0.00 21 930.9
20260902224758 77 264 9.6 18.2 0.00 0.00 0.00 22 930.7
20260902224253 76 244 6.1 13.9 0.00 0.00 0.00 24 930.2
20260902223750 75 259 7.0 18.2 0.00 0.00 0.00 23 930.3
20260902223249 75 232 9.6 14.8 0.00 0.00 0.00 23 930.7
20260902222748 75 199 4.3 11.3 0.00 0.00 0.00 25 930.5
20260902222248 75 316 2.6 13.0 0.00 0.00 0.00 25 930.8
20260902221742 76 249 5.2 9.6 0.00 0.00 0.00 25 930.9
20260902221242 75 233 7.8 12.2 0.00 0.00 0.00 25 930.5
20260902220738 75 184 8.7 12.2 0.00 0.00 0.00 25 930.7
20260902220237 75 241 7.8 9.6 0.00 0.00 0.00 25 930.8
20260902215733 77 159 5.2 12.2 0.00 0.00 0.00 24 930.8
20260902215228 77 166 7.8 12.2 0.00 0.00 0.00 25 930.5
20260902214724 76 211 9.6 15.6 0.00 0.00 0.00 25 930.7
20260902214222 76 224 9.6 12.2 0.00 0.00 0.00 25 930.5
20260902213718 77 256 3.5 13.9 0.00 0.00 0.00 25 930.7
20260902213213 76 167 5.2 12.2 0.00 0.00 0.00 25 930.7
20260902212713 77 236 11.3 13.9 0.00 0.00 0.00 24 930.7
20260902212209 77 267 6.1 13.0 0.00 0.00 0.00 25 930.8
20260902211705 77 273 7.0 13.0 0.00 0.00 0.00 26 930.5
20260902211200 76 201 11.3 18.2 0.00 0.00 0.00 27 930.8
20260902210659 77 275 6.1 12.2 0.00 0.00 0.00 28 930.7
20260902210155 77 245 6.1 9.6 0.00 0.00 0.00 26 930.9
20260902205653 75 234 6.1 14.8 0.00 0.00 0.00 28 930.9
20260902205148 75 198 8.7 13.9 0.00 0.00 0.00 28 930.8
20260902204643 76 178 5.2 15.6 0.00 0.00 0.00 28 931.0
20260902204138 75 148 6.1 15.6 0.00 0.00 0.00 28 930.9
20260902203634 77 243 5.2 12.2 0.00 0.00 0.00 28 931.1
20260902203133 76 238 6.1 12.2 0.00 0.00 0.00 29 931.2
20260902202629 75 233 11.3 20.0 0.00 0.00 0.00 29 930.9
20260902202125 76 233 7.0 22.6 0.00 0.00 0.00 29 931.1
20260902201621 75 192 8.7 11.3 0.00 0.00 0.00 30 931.2
20260902201120 75 336 0.9 17.4 0.00 0.00 0.00 29 931.2
20260902200615 76 216 12.2 17.4 0.00 0.00 0.00 28 931.1
20260902200112 75 240 10.4 18.2 0.00 0.00 0.00 31 931.3
20260902195607 75 233 7.8 25.2 0.00 0.00 0.00 30 931.5
20260902195106 75 194 17.4 29.5 0.00 0.00 0.00 29 931.6
20260902194606 75 238 9.6 14.8 0.00 0.00 0.00 32 931.5
20260902194101 75 130 13.0 17.4 0.00 0.00 0.00 32 931.7
20260902193557 75 193 7.0 15.6 0.00 0.00 0.00 33 931.7
20260902193056 75 267 13.9 20.0 0.00 0.00 0.00 31 931.7
20260902192555 74 148 7.0 15.6 0.00 0.00 0.00 34 931.7
20260902192054 74 215 8.7 11.3 0.00 0.00 0.00 33 931.8
20260902191549 75 202 10.4 20.9 0.00 0.00 0.00 33 931.3
20260902191043 74 193 11.3 18.2 0.00 0.00 0.00 34 931.8
20260902190539 75 230 13.0 17.4 0.00 0.00 0.00 34 932.0
20260902190035 74 227 2.6 20.0 0.00 0.00 0.00 35 931.9
20260902185531 74 315 8.7 14.8 0.00 0.00 0.00 35 931.8
20260902185026 74 253 9.6 17.4 0.00 0.00 0.00 35 931.9
20260902184521 73 199 10.4 18.2 0.00 0.00 0.00 35 932.4
20260902184016 73 201 7.8 14.8 0.00 0.00 0.00 37 932.0
20260902183513 72 206 6.1 14.8 0.00 0.00 0.00 37 932.4
20260902183009 72 246 4.3 17.4 0.00 0.00 0.00 39 932.3
20260902182504 73 188 13.9 18.2 0.00 0.00 0.00 37 932.4
20260902182000 73 194 5.2 13.0 0.00 0.00 0.00 37 932.6
20260902181456 73 279 7.0 13.0 0.00 0.00 0.00 37 932.5
20260902180950 73 200 7.8 20.0 0.00 0.00 0.00 36 932.3
20260902180445 72 214 9.6 14.8 0.00 0.00 0.00 37 932.5
20260902175941 72 177 13.0 20.9 0.00 0.00 0.00 36 932.6
20260902175441 73 244 13.0 18.2 0.00 0.00 0.00 37 932.4
20260902174937 72 150 8.7 14.8 0.00 0.00 0.00 37 932.8
20260902174434 72 213 8.7 13.9 0.00 0.00 0.00 37 932.6
20260902173929 70 278 8.7 11.3 0.00 0.00 0.00 38 933.1
20260902173428 70 251 8.7 15.6 0.00 0.00 0.00 38 933.4
20260902172923 71 226 9.6 15.6 0.00 0.00 0.00 37 933.2
20260902172423 73 249 8.7 13.9 0.00 0.00 0.00 38 932.9
20260902171918 72 252 11.3 18.2 0.00 0.00 0.00 38 932.7
20260902171413 72 241 7.0 8.7 0.00 0.00 0.00 38 932.6
20260902170909 72 183 8.7 13.9 0.00 0.00 0.00 38 932.6
20260902170404 72 254 9.6 13.9 0.00 0.00 0.00 39 932.6
20260902165900 71 287 6.1 15.6 0.00 0.00 0.00 40 932.5
20260902165359 71 211 5.2 12.2 0.00 0.00 0.00 41 932.7
20260902164854 71 177 6.1 12.2 0.00 0.00 0.00 40 933.1
20260902164349 70 249 8.7 12.2 0.00 0.00 0.00 40 932.8
20260902163848 69 175 4.3 11.3 0.00 0.00 0.00 43 932.9
20260902163343 69 295 2.6 12.2 0.00 0.00 0.00 44 933.1
20260902162841 70 183 0.0 9.6 0.00 0.00 0.00 42 933.3
20260902162336 69 212 7.8 11.3 0.00 0.00 0.00 45 932.8
20260902161831 69 102 2.6 8.7 0.00 0.00 0.00 45 933.1
20260902161327 69 213 7.8 12.2 0.00 0.00 0.00 45 932.9
20260902160823 69 221 7.8 9.6 0.00 0.00 0.00 45 932.8
20260902160318 68 183 5.2 11.3 0.00 0.00 0.00 47 932.9
20260902155816 68 229 7.0 15.6 0.00 0.00 0.00 47 933.1
20260902155315 67 155 3.5 13.9 0.00 0.00 0.00 49 932.9
20260902154810 67 200 5.2 18.2 0.00 0.00 0.00 51 933.2
20260902154306 66 189 3.5 7.0 0.00 0.00 0.00 53 933.4
20260902153804 66 191 7.0 11.3 0.00 0.00 0.00 53 933.5
20260902153259 65 210 2.6 8.7 0.00 0.00 0.00 56 933.4
20260902152755 64 187 4.3 5.2 0.00 0.00 0.00 57 933.4
20260902152251 63 227 6.1 9.6 0.00 0.00 0.00 57 933.5
20260902151751 62 213 4.3 7.8 0.00 0.00 0.00 59 933.3
20260902151246 61 150 2.6 7.0 0.00 0.00 0.00 62 933.4
20260902150745 61 191 5.2 7.8 0.00 0.00 0.00 62 933.5
20260902150242 59 226 5.2 11.3 0.00 0.00 0.00 67 933.5
20260902145741 59 63 0.9 1.7 0.00 0.00 0.00 69 933.4
20260902145237 59 40 0.0 0.9 0.00 0.00 0.00 71 933.5
20260902144732 58 60 0.9 2.6 0.00 0.00 0.00 71 933.6
20260902144228 57 67 0.0 0.0 0.00 0.00 0.00 72 933.6
20260902143723 57 133 0.0 0.0 0.00 0.00 0.00 72 933.4
20260902143218 57 42 0.0 0.0 0.00 0.00 0.00 71 933.6
20260902142714 57 50 0.0 0.9 0.00 0.00 0.00 71 933.7
20260902142209 57 50 0.0 2.6 0.00 0.00 0.00 71 933.7
20260902141709 58 90 2.6 2.6 0.00 0.00 0.00 70 933.9
20260902141205 57 37 0.0 0.0 0.00 0.00 0.00 71 934.2
20260902140701 55 73 0.9 2.6 0.00 0.00 0.00 75 934.1
20260902140200 54 51 0.0 0.0 0.00 0.00 0.00 77 934.2
20260902135700 54 54 0.0 0.0 0.00 0.00 0.00 78 934.1
20260902135155 53 44 0.0 0.0 0.00 0.00 0.00 78 934.0
20260902134650 53 73 1.7 2.6 0.00 0.00 0.00 79 933.7
20260902134150 53 81 0.0 0.0 0.00 0.00 0.00 78 932.9
20260902133645 53 63 0.0 0.0 0.00 0.00 0.00 78 933.1
20260902133140 52 64 0.9 1.7 0.00 0.00 0.00 80 933.2
20260902132635 51 8 0.9 1.7 0.00 0.00 0.00 82 932.6
20260902132131 51 40 0.0 0.0 0.00 0.00 0.00 82 932.4
20260902131626 50 85 1.7 1.7 0.00 0.00 0.00 82 932.4
20260902131121 50 70 0.0 1.7 0.00 0.00 0.00 82 932.4
20260902130617 50 44 0.0 1.7 0.00 0.00 0.00 81 932.1
20260902130117 51 33 0.0 0.0 0.00 0.00 0.00 81 931.9
20260902125613 51 62 0.9 1.7 0.00 0.00 0.00 80 932.0
20260902125108 51 92 2.6 5.2 0.00 0.00 0.00 80 931.8
20260902124606 51 87 3.5 4.3 0.00 0.00 0.00 80 932.0
20260902124105 51 56 0.9 1.7 0.00 0.00 0.00 80 931.9
20260902123601 51 89 3.5 5.2 0.00 0.00 0.00 80 932.1
20260902123055 50 113 0.9 2.6 0.00 0.00 0.00 81 932.0
20260902122549 50 52 1.7 2.6 0.00 0.00 0.00 81 932.1
20260902122045 51 58 1.7 4.3 0.00 0.00 0.00 80 932.0
20260902121540 51 120 3.5 5.2 0.00 0.00 0.00 80 932.1
20260902121035 50 58 0.9 2.6 0.00 0.00 0.00 82 932.1
20260902120531 50 87 0.9 2.6 0.00 0.00 0.00 82 932.3
20260902120027 50 136 1.7 2.6 0.00 0.00 0.00 82 932.4
20260902115522 50 109 0.0 2.6 0.00 0.00 0.00 81 932.1
20260902115018 50 71 2.6 4.3 0.00 0.00 0.00 81 932.3
20260902114513 51 125 2.6 2.6 0.00 0.00 0.00 81 932.4
20260902114013 51 47 0.9 1.7 0.00 0.00 0.00 81 932.5
20260902113509 51 56 0.9 2.6 0.00 0.00 0.00 81 932.5
20260902113004 51 42 0.0 0.0 0.00 0.00 0.00 81 932.3
20260902112459 51 65 0.9 0.9 0.00 0.00 0.00 81 932.4
20260902111955 51 76 1.7 4.3 0.00 0.00 0.00 82 932.3
20260902111452 51 61 0.0 1.7 0.00 0.00 0.00 82 932.5
20260902110947 51 60 0.0 0.0 0.00 0.00 0.00 82 932.5
20260902110443 51 70 1.7 1.7 0.00 0.00 0.00 83 932.3
20260902105937 50 61 0.0 0.9 0.00 0.00 0.00 82 932.3
20260902105432 51 52 0.0 0.0 0.00 0.00 0.00 81 932.5
20260902104927 51 60 0.9 2.6 0.00 0.00 0.00 80 932.1
20260902104423 51 91 3.5 4.3 0.00 0.00 0.00 81 932.3
20260902103922 51 90 2.6 2.6 0.00 0.00 0.00 81 932.1
20260902103418 51 90 2.6 2.6 0.00 0.00 0.00 82 932.3
20260902102913 51 90 1.7 2.6 0.00 0.00 0.00 82 932.3
20260902102410 51 76 0.0 0.0 0.00 0.00 0.00 82 932.0
20260902101906 51 75 0.0 0.0 0.00 0.00 0.00 82 932.3
20260902101400 51 55 0.0 0.0 0.00 0.00 0.00 83 932.0
20260902100900 51 48 0.0 0.0 0.00 0.00 0.00 83 931.9
20260902100359 51 48 0.0 0.0 0.00 0.00 0.00 83 932.3
20260902095855 51 45 0.0 0.0 0.00 0.00 0.00 82 932.0
20260902095355 51 46 0.0 0.0 0.00 0.00 0.00 81 932.3
20260902094854 52 46 0.0 0.0 0.00 0.00 0.00 80 932.3
20260902094351 53 47 0.0 0.0 0.00 0.00 0.00 79 932.5
20260902093850 53 67 0.9 1.7 0.00 0.00 0.00 78 932.5
20260902093345 54 44 0.0 1.7 0.00 0.00 0.00 77 932.6
20260902092844 54 59 0.9 2.6 0.00 0.00 0.00 77 932.4
20260902092335 54 72 2.6 2.6 0.00 0.00 0.00 78 932.6
20260902091834 54 52 0.0 1.7 0.00 0.00 0.00 79 932.3
20260902091330 53 34 0.0 0.0 0.00 0.00 0.00 79 932.5
20260902090827 53 42 0.0 0.0 0.00 0.00 0.00 80 932.4
20260902090326 53 40 0.0 0.0 0.00 0.00 0.00 80 932.4
20260902085825 53 40 0.0 0.0 0.00 0.00 0.00 80 932.3
20260902085320 53 39 0.0 0.0 0.00 0.00 0.00 79 932.4
20260902084816 53 44 0.0 0.0 0.00 0.00 0.00 79 932.5
20260902084313 53 43 0.0 0.0 0.00 0.00 0.00 79 932.5
20260902083807 54 61 0.0 0.0 0.00 0.00 0.00 78 932.4
20260902083307 54 79 1.7 1.7 0.00 0.00 0.00 78 932.1
20260902082802 54 70 0.0 0.9 0.00 0.00 0.00 78 932.7
20260902082259 54 25 0.0 0.0 0.00 0.00 0.00 77 932.5
20260902081755 55 17 0.0 0.0 0.00 0.00 0.00 76 932.4
20260902081250 55 73 0.0 0.0 0.00 0.00 0.00 76 932.5
20260902080745 55 75 0.0 0.0 0.00 0.00 0.00 76 932.4
20260902080242 55 52 0.0 1.7 0.00 0.00 0.00 76 932.3